Flag for Israel Weather past 2 weeks in Safed, Israel

Now
57 °F

Clear.


Feels Like: 57 °F
Forecast: 39 / 60 °F
Wind: 5 mph from East

Location: Beirut Airport

Current Time: Mar 5, 2015 at 1:36:09 AM

Latest Report: Mar 5, 2015 at 12:00 AM


Visibility: N/A

Pressure: 30.15 "Hg

Humidity: 67%

Dew point: 46 °F

Location of SafedLocation

Historic Weather in Safed — Graph

°F

Safed temperature yesterday

Maximum temperature yesterday: 64 °F (at 10:00 AM)
Minimum temperature yesterday: 57 °F (at 12:00 AM)
Average temperature yesterday: 60 °F

Past Weeks' High & Low Weather Summary

 TemperatureHumidityPressure
High77 °F (Feb 27, 3:00 PM)88% (Feb 25, 4:00 AM)30.24 "Hg (Feb 25, 4:00 AM)
Low41 °F (Feb 20, 10:00 AM)19% (Feb 27, 3:00 PM)29.71 "Hg (Feb 20, 5:00 AM)
Average58 °F63%30.04 "Hg
* Reported Midnight between Feb 17 and Feb 18 — Midnight between Mar 4 and Mar 5, Safed, Weather by CustomWeather, © 2015

Note: Actual official high and low records may vary slightly from our data, if they occured in-between our weather recording intervals... More about our weather records

Advertising

Safed weather history for previous 24 hours

 ConditionsComfort  
Time TempWeatherWind HumidityBarometerVisibility
12:00 AM
Thu, Mar 5
57 °FClear.5 mph67%30.15 "HgN/A
11:00 PM
Wed, Mar 4
57 °FClear.5 mph67%30.15 "HgN/A
10:00 PM57 °FPassing clouds.3 mph72%30.15 "HgN/A
9:00 PM59 °FPassing clouds.5 mph72%30.15 "HgN/A
8:00 PM59 °FPassing clouds.5 mph72%30.15 "HgN/A
7:00 PM61 °FPassing clouds.6 mph72%30.15 "HgN/A
6:00 PM61 °FPassing clouds.3 mph68%30.12 "HgN/A
5:00 PM63 °FPartly sunny.3 mph64%30.12 "Hg5 mi
4:00 PM64 °FPartly sunny.7 mph64%30.12 "Hg5 mi
3:00 PM64 °FPartly sunny.7 mph64%30.12 "Hg5 mi
2:00 PM64 °FPartly sunny.7 mph68%30.12 "Hg5 mi
1:00 PM64 °FPartly sunny.9 mph68%30.12 "Hg5 mi
12:00 PM64 °FPartly sunny.10 mph68%30.15 "Hg5 mi
11:00 AM63 °FPartly sunny.12 mph73%30.15 "Hg5 mi
10:00 AM64 °FPartly sunny.9 mph64%30.15 "Hg5 mi
9:00 AM63 °FPartly sunny.8 mph73%30.15 "Hg4 mi
8:00 AM61 °FPartly sunny.5 mph77%30.15 "Hg4 mi
7:00 AM57 °FPartly sunny.3 mph82%30.12 "Hg4 mi
6:00 AM57 °FPassing clouds.5 mph82%30.09 "Hg4 mi
5:00 AM57 °FPassing clouds.5 mph82%30.09 "Hg5 mi
4:00 AM57 °FPassing clouds.3 mph82%30.12 "Hg5 mi
3:00 AM57 °FPassing clouds.3 mph82%30.09 "Hg5 mi
2:00 AM57 °FPassing clouds.3 mph82%30.12 "Hg5 mi
1:00 AM57 °FPassing clouds.6 mph77%30.12 "Hg5 mi
Weather by CustomWeather, © 2015

See weather overviewHow to use our weather pages